모두
Glen Innes Medical Airport YXGE 기상
There is no TAF data available at YXGE. Showing TAF data for YGLI (5 mi 서북).
GLI 터미널 지역 예측(YXGE에 대한 데이터 없음)
| Date | Time (AEST) | Flight Rules | Wind Dir. | Speed | Type | Height AGL (ft) | Visibility | Remarks | ||||||
|---|---|---|---|---|---|---|---|---|---|---|---|---|---|---|
| 09-5월 | 17:00 | VFR | 20° | 6 kt | Clouds and Visibility are OK | >= 6 miles | ||||||||
| 09-5월 | 16:00 | VFR | 20° | 6 kt | Clouds and Visibility are OK | >= 6 miles | ||||||||
| 09-5월 | 15:00 | VFR | 20° | 6 kt | Clouds and Visibility are OK | >= 6 miles | ||||||||
| 09-5월 | 14:00 | VFR | 20° | 6 kt | Clouds and Visibility are OK | >= 6 miles | ||||||||
| 09-5월 | 13:00 | VFR | 100° | 8 kt | Clouds and Visibility are OK | >= 6 miles | ||||||||
| 09-5월 | 12:00 | VFR | 100° | 8 kt | Clouds and Visibility are OK | >= 6 miles | ||||||||
| 09-5월 | 11:00 | VFR | 100° | 8 kt | Clouds and Visibility are OK | >= 6 miles | ||||||||
| 09-5월 | 10:00 | VFR | 100° | 8 kt | Clouds and Visibility are OK | >= 6 miles | ||||||||
There is no METAR data available at YXGE. Showing METAR data for YGLI (5 mi 서북).
최근 GLI METAR 이력(YXGE에 대한 데이터 없음)
| Date | Time (AEST) | Flight Rules | Wind Dir. | Speed | Type | Height AGL (ft) | Visibility | Temp (°C) | Temp (°F) | Dew Point (°C) | Dew Point (°F) | Rel. Humid. | Pressure | Density Altitude | Remarks |
|---|---|---|---|---|---|---|---|---|---|---|---|---|---|---|---|
| 09-5월 | 10:00 | VFR | 100° | 12 kt | 10000 meters | 15° | 59° | 1° | 33° | 39% | 1025 mb | 3,798 ft | |||
| 09-5월 | 09:00 | VFR | 120° | 11 kt | 10000 meters | 12° | 53° | 3° | 37° | 54% | 1025 mb | 3,438 ft | |||
| 09-5월 | 08:00 | VFR | 120° | 6 kt | 10000 meters | 8° | 46° | 3° | 37° | 71% | 1024 mb | 2,987 ft | |||
| 09-5월 | 07:00 | VFR | 110° | 6 kt | 10000 meters | 2° | 35° | 1° | 33° | 93% | 1024 mb | 2,267 ft | |||
| 09-5월 | 06:00 | VFR | 120° | 6 kt | 10000 meters | 1° | 33° | -1° | 30° | 86% | 1023 mb | 2,177 ft | |||
| 09-5월 | 05:00 | VFR | 120° | 8 kt | 10000 meters | 2° | 35° | 0° | 32° | 87% | 1022 mb | 2,326 ft | |||
| 09-5월 | 04:00 | VFR | 90° | 8 kt | 10000 meters | 3° | 37° | 1° | 33° | 87% | 1022 mb | 2,446 ft | |||
| 09-5월 | 03:00 | VFR | 130° | 9 kt | 10000 meters | 4° | 39° | 1° | 33° | 81% | 1022 mb | 2,566 ft | |||
| 09-5월 | 02:00 | VFR | 120° | 8 kt | 10000 meters | 2° | 35° | 0° | 32° | 87% | 1022 mb | 2,326 ft | |||
| 09-5월 | 01:00 | VFR | 140° | 3 kt | 10000 meters | 0° | 32° | -1° | 30° | 93% | 1022 mb | 2,086 ft | |||
| 09-5월 | 00:00 | VFR | 100° | 7 kt | 10000 meters | 2° | 35° | 1° | 33° | 93% | 1022 mb | 2,326 ft | |||
| 08-5월 | 23:00 | VFR | 120° | 5 kt | 10000 meters | 1° | 33° | -1° | 30° | 86% | 1022 mb | 2,206 ft | |||
| 08-5월 | 22:00 | VFR | 120° | 4 kt | 10000 meters | 2° | 35° | -1° | 30° | 80% | 1023 mb | 2,297 ft | |||
| 08-5월 | 21:00 | VFR | Calm | 10000 meters | 2° | 35° | -1° | 30° | 80% | 1022 mb | 2,326 ft | ||||
| 08-5월 | 20:00 | VFR | 260° | 2 kt | 10000 meters | 5° | 41° | -1° | 30° | 65% | 1022 mb | 2,686 ft | |||
| 08-5월 | 19:00 | VFR | 250° | 5 kt | 10000 meters | 6° | 42° | -2° | 28° | 56% | 1022 mb | 2,806 ft | |||
| 08-5월 | 18:00 | VFR | 240° | 3 kt | 10000 meters | 10° | 50° | -2° | 28° | 43% | 1021 mb | 3,316 ft | |||
| 08-5월 | 17:00 | VFR | 250° | 10 kt | 10000 meters | 13° | 55° | -1° | 30° | 38% | 1020 mb | 3,705 ft | |||
| 08-5월 | 16:00 | VFR | 250° | 13 kt | 10000 meters | 15° | 59° | -2° | 28° | 31% | 1020 mb | 3,945 ft | |||
| 08-5월 | 15:00 | VFR | 250° | 14 kt | 10000 meters | 16° | 60° | 0° | 32° | 34% | 1019 mb | 4,095 ft | |||
| 08-5월 | 14:00 | VFR | 260° | 13 kt | 10000 meters | 16° | 60° | 0° | 32° | 34% | 1019 mb | 4,095 ft | |||
| 08-5월 | 13:00 | VFR | 260° | 12 kt | 10000 meters | 16° | 60° | 1° | 33° | 36% | 1020 mb | 4,065 ft | |||
| 08-5월 | 12:00 | VFR | 260° | 13 kt | 10000 meters | 15° | 59° | 0° | 32° | 36% | 1020 mb | 3,945 ft | |||
| 08-5월 | 11:00 | VFR | 270° | 11 kt | 10000 meters | 13° | 55° | -1° | 30° | 38% | 1021 mb | 3,676 ft |
로그인
| 귀하의 브라우저는 지원되지 않습니다.. 브라우저를 업그레이드하세요 |
